Zurück zum Katalog

THOR BURNER 2A R/B

AktivSSO
NORAD 7219·ROCKET BODY·🇺🇸 United States

Gestartet Mar 16, 1974 von Vandenberg Space Force Base

Loading…

Nächste Überflüge (nächste 24 Stunden)

TLE

AktuellSource: Space-Track

Epoche: Sep 14, 2026, 21:39 UTC

1 07219U 74015B   26257.90218632  .00000095  00000-0  58031-4 0  9994
2 07219  99.0781 225.1961 0064316  43.6178 317.0059 14.26265122726034

Verfolge THOR BURNER 2A R/B in Echtzeit mit AllMySat

Download on the App Store